Regional Weather Roundup
Issued by NWS

Home | Current Version | Previous Version | Text Only | Print | Product List | Glossary Off
Versions: 1 2 3 4 5 6 7 8 9 10 11 12 13 14 15 16 17 18 19 20 21 22 23 24 25 26 27 28 29 30 31 32 33 34 35 36 37 38 39 40 41 42 43 44 45 46 47 48 49 50

742
ASUS43 KIND 251359
RWRIN

WEATHER ROUNDUP FOR INDIANA
NATIONAL WEATHER SERVICE INDIANAPOLIS IN
1000 AM EDT TUE APR 25 2017

NOTE: "FAIR" INDICATES FEW OR NO CLOUDS BELOW 12,000 FEET WITH NO
SIGNIFICANT WEATHER AND/OR OBSTRUCTIONS TO VISIBILITY.

* - STATION DOES NOT REPORT WEATHER SUCH AS PRECIPITATION OR FOG.

+ - STATION NOT QUALITY CONTROLLED BY THE NATIONAL WEATHER SERVICE.
    USE DATA WITH CAUTION...ESPECIALLY DEWPOINT AND RELATIVE
    HUMIDITY OBSERVATIONS.

INZ001>003-010>013-019-020-251500-
NORTHWEST INDIANA

CITY           SKY/WX    TMP DP  RH WIND       PRES   REMARKS
GARY /AIRPORT/ PTSUNNY   63  50  63 S10G22    29.74S
KNOX *+        MOSUNNY   61  34  36 S15       29.77S
LA PORTE +     MOSUNNY   61  53  73 S10       29.77S
MONTICELLO +   MOSUNNY   62  53  74 S7        29.76F

$$

LMZ046-743>745-251500-
SOUTHERN LAKE MICHIGAN

STATION/POSITION TIME  TEMP    WIND        PRES    WAVE
                       AIR SEA DIR/SP/G            HT
                 (UTC) (F)     (DEG/KT/KT) (MB)    (FT)
BURNS HARBOR     1340   62     170/ 11/ 18 1007.5F
MICHIGAN CITY    1330   60     150/ 13/ 19   N/A

$$

INZ004-005-014>016-021>024-251500-
NORTH CENTRAL INDIANA

CITY           SKY/WX    TMP DP  RH WIND       PRES   REMARKS
ELKHART        SUNNY     61  50  67 SE5       29.78F
GOSHEN         MOSUNNY   61  50  67 SE12      29.79F
SOUTH BEND     SUNNY     61  52  72 SE12      29.79F
WARSAW +       MOSUNNY   59  50  72 SE7       29.80S

$$

INZ006>009-017-018-025>027-251500-
NORTHEAST INDIANA

CITY           SKY/WX    TMP DP  RH WIND       PRES   REMARKS
ANGOLA *+      CLOUDY    57  50  77 SE9       29.82S
AUBURN +       SUNNY     59  48  67 E7        29.83S
FORT WAYNE     PTSUNNY   60  50  69 SE12      29.82R
HUNTINGTON +   SUNNY     60  51  73 S6        29.81S
KENDALLVILLE + SUNNY     57  50  76 SE12      29.81F

$$

INZ028-029-035-036-043>045-051>053-251500-
WEST CENTRAL INDIANA

CITY           SKY/WX    TMP DP  RH WIND       PRES   REMARKS
CRAWFORDSVL +  SUNNY     61  54  76 SE13      29.76F
LAFAYETTE      CLOUDY    61  54  77 S10       29.76S
TERRE HAUTE    MOSUNNY   63  54  72 SE12      29.76S

$$

INZ030>032-037>040-046>048-054>057-064-065-251500-
CENTRAL INDIANA

CITY           SKY/WX    TMP DP  RH WIND       PRES   REMARKS
CP ATTERBURY + SUNNY     63  54  72 S7        29.80S
COLUMBUS       MOSUNNY   61  54  77 SE6       29.80S
GREENWOOD *+   CLOUDY    62  54  74 SE8       29.80S
INDIANAPOLIS   PTSUNNY   61  54  77 S9        29.78F
-EAGLE CREEK   CLOUDY    62  53  72 S7        29.78F
KOKOMO +       MOSUNNY   62  54  74 S10       29.80S
SHELBYVILLE    SUNNY     64  52  64 SE8       29.80R

$$

INZ033-034-041-042-049-050-058-059-251500-
EAST CENTRAL INDIANA

CITY           SKY/WX    TMP DP  RH WIND       PRES   REMARKS
MUNCIE         SUNNY     63  51  65 S8        29.81R
RICHMOND +     SUNNY     59  50  72 SE9       29.83R

$$

INZ060-061-067>069-081>083-085>088-251500-
SOUTHWEST INDIANA

CITY           SKY/WX    TMP DP  RH WIND       PRES   REMARKS
EVANSVILLE     SUNNY     66  55  67 VRB3      29.77S
HUNTINGBURG *+ MOSUNNY   64  57  78 SE7       29.78S

$$

INZ062-063-066-070>080-084-089>092-251500-
SOUTH CENTRAL AND SOUTHEAST INDIANA

CITY           SKY/WX    TMP DP  RH WIND       PRES   REMARKS
BLOOMINGTON    SUNNY     61  32  33 SE12      29.78S
MADISON *+     SUNNY     61  54  77 E7        29.82F
SEYMOUR +      SUNNY     63  54  72 SE8       29.80S

$$





USA.gov is the U.S. government's official web portal to all federal, state and local government web resources and services.